Radiation Dose at Monitoring Post of Fukushima Daini Nuclear Power Station
Date,Time,MP-1(microSv/h),MP-2(microSv/h),MP-3(microSv/h),MP-4(microSv/h),MP-5(microSv/h),MP-6(microSv/h),MP-7(microSv/h),Wind Direction,Wind Velocity(m/s),Rain
2020/05/28,00:00,0.170,0.155,0.252,0.243,0.244,0.135,0.081,north-northwest,7.4,No
2020/05/28,00:10,0.170,0.156,0.254,0.243,0.244,0.136,0.081,northwest,8.4,No
2020/05/28,00:20,0.171,0.155,0.254,0.243,0.244,0.134,0.081,north-northwest,8.1,No
2020/05/28,00:30,0.170,0.156,0.253,0.243,0.244,0.135,0.082,north-northwest,8.1,No
2020/05/28,00:40,0.171,0.156,0.253,0.242,0.247,0.134,0.082,north-northwest,5.3,No
2020/05/28,00:50,0.171,0.156,0.253,0.243,0.243,0.135,0.082,north-northwest,4.8,No
2020/05/28,01:00,0.171,0.155,0.253,0.244,0.245,0.135,0.081,north-northwest,5.3,No
2020/05/28,01:10,0.170,0.156,0.256,0.243,0.244,0.135,0.082,north-northwest,6.9,No
2020/05/28,01:20,0.170,0.156,0.253,0.243,0.245,0.135,0.082,north-northwest,8.1,No
2020/05/28,01:30,0.170,0.155,0.255,0.242,0.243,0.135,0.081,northwest,9.3,No
2020/05/28,01:40,0.170,0.156,0.254,0.244,0.245,0.135,0.082,northwest,9.5,No
2020/05/28,01:50,0.169,0.156,0.255,0.242,0.243,0.135,0.082,northwest,9.3,No
2020/05/28,02:00,0.171,0.156,0.254,0.244,0.246,0.135,0.082,northwest,8.9,No
2020/05/28,02:10,0.169,0.156,0.254,0.243,0.244,0.135,0.082,northwest,8.6,No
2020/05/28,02:20,0.171,0.157,0.254,0.242,0.245,0.134,0.082,northwest,8.7,No
2020/05/28,02:30,0.170,0.155,0.254,0.243,0.243,0.135,0.081,northwest,9.8,No
2020/05/28,02:40,0.170,0.156,0.255,0.243,0.246,0.134,0.083,northwest,9.5,No
2020/05/28,02:50,0.171,0.155,0.254,0.242,0.244,0.134,0.082,northwest,7.7,No
2020/05/28,03:00,0.171,0.156,0.255,0.243,0.245,0.135,0.082,west-northwest,6.2,No
2020/05/28,03:10,0.170,0.155,0.254,0.244,0.245,0.134,0.082,west-northwest,5.8,No
2020/05/28,03:20,0.170,0.156,0.254,0.241,0.244,0.134,0.083,west-northwest,7.8,No
2020/05/28,03:30,0.169,0.156,0.254,0.243,0.244,0.135,0.082,west-northwest,7.7,No
2020/05/28,03:40,0.170,0.156,0.254,0.243,0.244,0.135,0.083,west-northwest,7.7,No
2020/05/28,03:50,0.170,0.155,0.254,0.242,0.247,0.134,0.082,west-northwest,7.7,No
2020/05/28,04:00,0.170,0.156,0.254,0.244,0.244,0.134,0.081,west-northwest,9.2,No
2020/05/28,04:10,0.169,0.156,0.255,0.242,0.245,0.135,0.081,west-northwest,9.8,No
2020/05/28,04:20,0.170,0.156,0.254,0.243,0.245,0.134,0.082,west-northwest,10.4,No
2020/05/28,04:30,0.171,0.156,0.254,0.242,0.245,0.135,0.082,west-northwest,9.3,No
2020/05/28,04:40,0.170,0.157,0.255,0.244,0.243,0.134,0.082,west-northwest,8.7,No
2020/05/28,04:50,0.170,0.156,0.253,0.243,0.245,0.135,0.081,west-northwest,7.2,No
2020/05/28,05:00,0.170,0.155,0.256,0.243,0.245,0.134,0.082,west-northwest,6.1,No
2020/05/28,05:10,0.171,0.156,0.253,0.244,0.244,0.134,0.082,northwest,4.6,No
2020/05/28,05:20,0.171,0.156,0.256,0.241,0.246,0.135,0.082,northwest,6.2,No
2020/05/28,05:30,0.171,0.157,0.255,0.243,0.243,0.134,0.081,west-northwest,6.2,No
2020/05/28,05:40,0.171,0.155,0.254,0.243,0.246,0.135,0.081,west-northwest,4.8,No
2020/05/28,05:50,0.171,0.156,0.254,0.242,0.244,0.134,0.082,-,CALM,No
2020/05/28,06:00,0.170,0.156,0.254,0.242,0.245,0.135,0.082,west-northwest,4.1,No
2020/05/28,06:10,0.171,0.156,0.255,0.243,0.243,0.134,0.083,west-northwest,4.6,No
2020/05/28,06:20,0.170,0.156,0.253,0.243,0.245,0.135,0.081,northwest,3.0,No
2020/05/28,06:30,0.171,0.155,0.253,0.241,0.243,0.134,0.082,north-northwest,1.1,No
2020/05/28,06:40,0.170,0.155,0.252,0.243,0.244,0.134,0.082,north-northeast,1.1,No
2020/05/28,06:50,0.171,0.156,0.255,0.241,0.244,0.135,0.081,west-northwest,2.6,No
2020/05/28,07:00,0.169,0.155,0.253,0.242,0.244,0.135,0.082,west-northwest,2.6,No
2020/05/28,07:10,0.171,0.155,0.253,0.242,0.245,0.135,0.082,west-northwest,3.5,No
2020/05/28,07:20,0.169,0.156,0.254,0.239,0.242,0.135,0.081,west-northwest,5.8,No
2020/05/28,07:30,0.171,0.154,0.252,0.242,0.245,0.135,0.081,west-northwest,6.2,No
2020/05/28,07:40,0.169,0.155,0.252,0.241,0.242,0.135,0.081,west,5.2,No
2020/05/28,07:50,0.170,0.156,0.254,0.240,0.243,0.135,0.082,west,4.5,No
2020/05/28,08:00,0.170,0.156,0.253,0.241,0.245,0.134,0.081,west,3.8,No
2020/05/28,08:10,0.168,0.155,0.252,0.242,0.243,0.134,0.081,northwest,1.8,No
2020/05/28,08:20,0.171,0.154,0.251,0.240,0.241,0.135,0.081,north-northwest,1.9,No
2020/05/28,08:30,0.171,0.155,0.252,0.240,0.246,0.134,0.081,northwest,4.1,No
2020/05/28,08:40,0.168,0.156,0.255,0.241,0.245,0.135,0.083,northwest,3.4,No
2020/05/28,08:50,0.171,0.155,0.253,0.242,0.241,0.135,0.082,northwest,3.4,No
2020/05/28,09:00,0.171,0.154,0.251,0.242,0.242,0.135,0.082,north-northeast,0.6,No
2020/05/28,09:10,0.169,0.155,0.251,0.239,0.244,0.134,0.081,northeast,0.9,No
2020/05/28,09:20,0.168,0.156,0.255,0.241,0.245,0.135,0.081,north-northeast,0.7,No
2020/05/28,09:30,0.172,0.155,0.255,0.242,0.243,0.136,0.081,east,1.0,No
2020/05/28,09:40,0.171,0.155,0.254,0.245,0.241,0.135,0.081,south-southeast,2.7,No
2020/05/28,09:50,0.170,0.155,0.252,0.243,0.241,0.134,0.082,south-southeast,1.7,No
2020/05/28,10:00,0.169,0.155,0.252,0.241,0.243,0.135,0.081,south-southeast,2.2,No
2020/05/28,10:10,0.169,0.156,0.251,0.240,0.246,0.136,0.082,south-southeast,2.0,No
2020/05/28,10:20,0.171,0.157,0.252,0.239,0.245,0.135,0.083,southeast,2.0,No
2020/05/28,10:30,0.171,0.156,0.257,0.244,0.243,0.136,0.083,south-southeast,2.2,No
2020/05/28,10:40,0.170,0.155,0.256,0.245,0.242,0.135,0.081,south-southeast,2.6,No
2020/05/28,10:50,0.169,0.154,0.255,0.243,0.242,0.136,0.081,south-southeast,2.5,No
2020/05/28,11:00,0.170,0.156,0.253,0.243,0.242,0.135,0.081,south-southeast,3.3,No
2020/05/28,11:10,0.172,0.157,0.255,0.241,0.243,0.135,0.083,southeast,3.7,No
2020/05/28,11:20,0.171,0.156,0.253,0.240,0.247,0.134,0.082,south-southeast,3.6,No
2020/05/28,11:30,0.170,0.155,0.254,0.242,0.246,0.135,0.082,south-southeast,4.4,No
2020/05/28,11:40,0.169,0.155,0.253,0.243,0.245,0.136,0.082,south-southeast,4.4,No
2020/05/28,11:50,0.168,0.156,0.255,0.245,0.243,0.135,0.081,south-southeast,4.1,No
2020/05/28,12:00,0.169,0.156,0.258,0.246,0.242,0.135,0.082,south-southeast,3.4,No
2020/05/28,12:10,0.172,0.156,0.257,0.242,0.242,0.135,0.083,southeast,4.2,No
2020/05/28,12:20,0.171,0.156,0.256,0.241,0.245,0.134,0.082,southeast,4.7,No
2020/05/28,12:30,0.171,0.155,0.255,0.243,0.246,0.135,0.082,southeast,5.9,No
2020/05/28,12:40,0.169,0.158,0.254,0.243,0.246,0.136,0.082,southeast,4.7,No
2020/05/28,12:50,0.169,0.156,0.255,0.246,0.245,0.135,0.082,southeast,4.0,No
2020/05/28,13:00,0.169,0.156,0.257,0.244,0.243,0.136,0.082,southeast,4.8,No
2020/05/28,13:10,0.169,0.155,0.259,0.243,0.242,0.135,0.082,south-southeast,4.7,No
2020/05/28,13:20,0.169,0.155,0.256,0.242,0.242,0.137,0.082,southeast,4.9,No
2020/05/28,13:30,0.169,0.155,0.256,0.243,0.243,0.136,0.081,south-southeast,3.1,No
2020/05/28,13:40,0.172,0.158,0.255,0.245,0.246,0.135,0.082,southeast,4.0,No
2020/05/28,13:50,0.172,0.157,0.256,0.247,0.247,0.136,0.082,south-southeast,5.0,No
2020/05/28,14:00,0.170,0.156,0.254,0.245,0.246,0.135,0.082,south-southeast,4.5,No
2020/05/28,14:10,0.169,0.155,0.255,0.244,0.245,0.135,0.081,south-southeast,5.2,No
2020/05/28,14:20,0.170,0.157,0.257,0.243,0.243,0.137,0.082,southeast,4.4,No
2020/05/28,14:30,0.170,0.157,0.260,0.245,0.243,0.136,0.082,south-southeast,4.5,No
2020/05/28,14:40,0.173,0.156,0.257,0.246,0.243,0.136,0.083,south-southeast,4.1,No
2020/05/28,14:50,0.171,0.155,0.257,0.245,0.243,0.134,0.082,south-southeast,4.8,No
2020/05/28,15:00,0.171,0.157,0.255,0.244,0.244,0.136,0.082,south,4.7,No
2020/05/28,15:10,0.169,0.157,0.257,0.244,0.247,0.136,0.082,south-southeast,4.9,No
2020/05/28,15:20,0.169,0.156,0.260,0.248,0.247,0.137,0.083,south-southeast,6.0,No
2020/05/28,15:30,0.173,0.155,0.258,0.246,0.245,0.137,0.083,south-southeast,5.2,No
2020/05/28,15:40,0.173,0.157,0.256,0.243,0.244,0.135,0.081,south-southeast,6.2,No
2020/05/28,15:50,0.171,0.158,0.255,0.245,0.243,0.136,0.084,south,4.7,No
2020/05/28,16:00,0.171,0.156,0.259,0.246,0.243,0.136,0.082,south-southeast,5.4,No
2020/05/28,16:10,0.169,0.157,0.257,0.245,0.243,0.136,0.082,south-southeast,5.6,No
2020/05/28,16:20,0.171,0.157,0.258,0.248,0.244,0.137,0.083,south-southeast,5.8,No
2020/05/28,16:30,0.173,0.157,0.260,0.247,0.248,0.136,0.082,south-southeast,6.3,No
2020/05/28,16:40,0.171,0.157,0.258,0.246,0.246,0.136,0.083,south-southeast,6.6,No
2020/05/28,16:50,0.170,0.157,0.260,0.246,0.245,0.136,0.083,south-southeast,6.4,No
2020/05/28,17:00,0.172,0.158,0.258,0.244,0.245,0.136,0.082,south-southeast,5.9,No
2020/05/28,17:10,0.172,0.156,0.259,0.248,0.244,0.136,0.082,south,6.2,No
2020/05/28,17:20,0.172,0.157,0.259,0.246,0.247,0.135,0.083,south,5.9,No
2020/05/28,17:30,0.172,0.157,0.258,0.247,0.247,0.135,0.082,south-southeast,6.3,No
2020/05/28,17:40,0.172,0.158,0.260,0.245,0.243,0.136,0.082,south-southeast,6.9,No
2020/05/28,17:50,0.171,0.156,0.257,0.247,0.246,0.137,0.083,south,6.8,No
2020/05/28,18:00,0.173,0.157,0.260,0.246,0.247,0.136,0.083,south,7.3,No
2020/05/28,18:10,0.171,0.158,0.259,0.248,0.246,0.136,0.082,south,6.6,No
2020/05/28,18:20,0.171,0.158,0.258,0.246,0.246,0.136,0.082,south,6.2,No
2020/05/28,18:30,0.171,0.156,0.260,0.246,0.245,0.136,0.082,south,6.9,No
2020/05/28,18:40,0.170,0.158,0.258,0.247,0.249,0.136,0.082,south,6.7,No
2020/05/28,18:50,0.173,0.157,0.259,0.246,0.246,0.135,0.082,south,7.4,No
2020/05/28,19:00,0.171,0.157,0.258,0.247,0.248,0.136,0.083,south,7.2,No
2020/05/28,19:10,0.172,0.157,0.259,0.246,0.246,0.136,0.083,south,7.5,No
2020/05/28,19:20,0.172,0.157,0.259,0.247,0.247,0.135,0.082,south-southwest,5.9,No
2020/05/28,19:30,0.172,0.157,0.259,0.247,0.246,0.135,0.083,south-southwest,6.4,No
2020/05/28,19:40,0.171,0.158,0.258,0.247,0.246,0.137,0.083,south-southwest,6.1,No
2020/05/28,19:50,0.172,0.157,0.259,0.247,0.246,0.136,0.083,south-southwest,5.2,No
2020/05/28,20:00,0.172,0.158,0.259,0.247,0.248,0.136,0.081,southwest,5.8,No
2020/05/28,20:10,0.172,0.157,0.259,0.247,0.246,0.137,0.083,southwest,5.0,No
2020/05/28,20:20,0.171,0.157,0.259,0.247,0.247,0.136,0.083,southwest,4.6,No
2020/05/28,20:30,0.171,0.158,0.260,0.248,0.246,0.137,0.082,southwest,4.4,No
2020/05/28,20:40,0.171,0.157,0.260,0.247,0.247,0.136,0.082,southwest,4.8,No
2020/05/28,20:50,0.172,0.158,0.259,0.249,0.245,0.136,0.083,southwest,4.8,No
2020/05/28,21:00,0.171,0.157,0.260,0.246,0.247,0.136,0.083,southwest,4.2,No
2020/05/28,21:10,0.173,0.158,0.259,0.247,0.245,0.137,0.083,west-southwest,3.1,No
2020/05/28,21:20,0.171,0.157,0.259,0.248,0.247,0.136,0.084,west-southwest,2.3,No
2020/05/28,21:30,0.173,0.157,0.259,0.246,0.245,0.136,0.082,west-southwest,1.7,No
2020/05/28,21:40,0.171,0.158,0.258,0.247,0.247,0.137,0.083,west-southwest,1.9,No
2020/05/28,21:50,0.171,0.159,0.260,0.246,0.246,0.136,0.082,west-southwest,2.8,No
2020/05/28,22:00,0.171,0.157,0.259,0.248,0.246,0.137,0.083,south-southwest,2.1,No
2020/05/28,22:10,0.173,0.158,0.259,0.246,0.247,0.136,0.083,south-southwest,1.8,No
2020/05/28,22:20,0.173,0.157,0.260,0.248,0.245,0.136,0.083,west-southwest,3.6,No
2020/05/28,22:30,0.172,0.157,0.259,0.248,0.248,0.137,0.082,west-southwest,5.2,No
2020/05/28,22:40,0.172,0.157,0.259,0.246,0.246,0.136,0.083,west,4.5,No
2020/05/28,22:50,0.171,0.157,0.259,0.247,0.247,0.137,0.083,west-northwest,4.5,No
2020/05/28,23:00,0.172,0.157,0.260,0.246,0.245,0.136,0.083,west,3.9,No
2020/05/28,23:10,0.172,0.157,0.258,0.247,0.248,0.137,0.083,west,3.9,No
2020/05/28,23:20,0.172,0.158,0.258,0.246,0.246,0.137,0.083,west,5.2,No
2020/05/28,23:30,0.171,0.158,0.259,0.246,0.246,0.137,0.083,west,2.8,No
2020/05/28,23:40,0.173,0.157,0.258,0.248,0.247,0.135,0.083,west,1.7,No
2020/05/28,23:50,0.172,0.158,0.260,0.245,0.246,0.136,0.083,west,2.1,No
